TimeCEST,TemperatureF,Dew PointF,Humidity,Sea Level PressureIn,VisibilityMPH,Wind Direction,Wind SpeedMPH,Gust SpeedMPH,PrecipitationIn,Events,Conditions,WindDirDegrees,DateUTC
12:25 AM,51.8,46.4,82,29.68,6.2,South,10.4,-,N/A,,Overcast,190,2012-10-15 22:25:00
12:55 AM,51.8,44.6,76,29.68,6.2,South,11.5,-,N/A,,Overcast,190,2012-10-15 22:55:00
1:25 AM,51.8,44.6,76,29.68,6.2,SSW,10.4,-,N/A,,Mostly Cloudy,200,2012-10-15 23:25:00
1:55 AM,50.0,44.6,82,29.68,6.2,South,9.2,-,N/A,,Mostly Cloudy,190,2012-10-15 23:55:00
2:25 AM,50.0,44.6,82,29.68,6.2,South,9.2,-,N/A,,Unknown,190,2012-10-16 00:25:00
2:55 AM,50.0,44.6,82,29.68,6.2,South,10.4,-,N/A,,Overcast,190,2012-10-16 00:55:00
3:25 AM,50.0,44.6,82,29.65,6.2,South,10.4,-,N/A,,Overcast,190,2012-10-16 01:25:00
3:55 AM,50.0,44.6,82,29.65,6.2,South,10.4,-,N/A,,Unknown,190,2012-10-16 01:55:00
4:25 AM,50.0,44.6,82,29.62,6.2,South,9.2,-,N/A,,Unknown,190,2012-10-16 02:25:00
4:55 AM,50.0,44.6,82,29.62,6.2,South,9.2,-,N/A,,Partly Cloudy,180,2012-10-16 02:55:00
5:25 AM,50.0,44.6,82,29.59,6.2,South,10.4,-,N/A,,Overcast,170,2012-10-16 03:25:00
5:55 AM,50.0,44.6,82,29.59,6.2,South,10.4,21.9,N/A,,Overcast,170,2012-10-16 03:55:00
6:25 AM,50.0,44.6,82,29.59,6.2,South,10.4,-,N/A,Rain,Light Rain,180,2012-10-16 04:25:00
6:55 AM,48.2,46.4,93,29.59,6.2,South,10.4,-,N/A,Rain,Light Rain,170,2012-10-16 04:55:00
7:07 AM,48.2,46.4,93,29.59,6.2,South,9.2,-,N/A,,Mostly Cloudy,180,2012-10-16 05:07:00
7:25 AM,48.2,46.4,93,29.59,6.2,South,9.2,-,N/A,,Mostly Cloudy,180,2012-10-16 05:25:00
7:29 AM,50.0,46.4,87,29.56,6.2,South,10.4,-,N/A,Rain,Light Rain,180,2012-10-16 05:29:00
7:55 AM,50.0,46.4,87,29.56,6.2,South,12.7,-,N/A,,Drizzle,180,2012-10-16 05:55:00
8:03 AM,50.0,46.4,87,29.56,6.2,South,13.8,25.3,N/A,,Overcast,190,2012-10-16 06:03:00
8:07 AM,50.0,46.4,87,29.56,6.2,South,13.8,25.3,N/A,,Drizzle,180,2012-10-16 06:07:00
8:11 AM,50.0,46.4,87,29.56,6.2,South,13.8,-,N/A,,Drizzle,180,2012-10-16 06:11:00
8:18 AM,50.0,46.4,87,29.56,5.6,South,13.8,-,N/A,Rain,Light Rain,190,2012-10-16 06:18:00
8:25 AM,48.2,46.4,93,29.56,3.7,South,12.7,-,N/A,Rain,Light Rain,190,2012-10-16 06:25:00
8:43 AM,48.2,48.2,100,29.56,6.2,South,12.7,27.6,N/A,Rain,Light Rain,190,2012-10-16 06:43:00
8:55 AM,48.2,48.2,100,29.56,6.2,South,11.5,-,N/A,Rain,Light Rain,190,2012-10-16 06:55:00
9:08 AM,48.2,48.2,100,29.56,6.2,South,11.5,25.3,N/A,Rain,Light Rain Showers,190,2012-10-16 07:08:00
9:25 AM,50.0,48.2,94,29.56,6.2,South,12.7,-,N/A,Rain,Light Rain,190,2012-10-16 07:25:00
9:32 AM,50.0,48.2,94,29.56,3.7,South,11.5,-,N/A,Rain,Light Rain,190,2012-10-16 07:32:00
9:39 AM,50.0,48.2,94,29.56,2.8,SSW,11.5,25.3,N/A,Rain,Rain,200,2012-10-16 07:39:00
9:42 AM,50.0,48.2,94,29.56,2.5,South,11.5,25.3,N/A,Rain,Light Rain,190,2012-10-16 07:42:00
9:47 AM,50.0,48.2,94,29.56,-9999.0,South,11.5,-,N/A,Rain,Heavy Drizzle,190,2012-10-16 07:47:00
9:55 AM,50.0,48.2,94,29.59,3.7,SSW,10.4,-,N/A,,Heavy Drizzle,200,2012-10-16 07:55:00
9:56 AM,50.0,48.2,94,29.59,3.7,SSW,9.2,-,N/A,,Drizzle,200,2012-10-16 07:56:00
10:03 AM,50.0,48.2,94,29.59,3.7,SSW,10.4,-,N/A,,Heavy Drizzle,210,2012-10-16 08:03:00
10:07 AM,50.0,48.2,94,29.59,4.3,SSW,11.5,-,N/A,,Drizzle,200,2012-10-16 08:07:00
10:13 AM,50.0,48.2,94,29.59,5.0,SSW,10.4,-,N/A,,Drizzle,200,2012-10-16 08:13:00
10:25 AM,50.0,48.2,94,29.59,6.2,SSW,10.4,-,N/A,,Overcast,210,2012-10-16 08:25:00
10:26 AM,50.0,48.2,94,29.59,6.2,SSW,10.4,-,N/A,,Overcast,200,2012-10-16 08:26:00
10:38 AM,50.0,48.2,94,29.59,6.2,SSW,10.4,-,N/A,Rain,Light Rain,200,2012-10-16 08:38:00
10:55 AM,50.0,50.0,100,29.59,6.2,South,10.4,-,N/A,,Mostly Cloudy,190,2012-10-16 08:55:00
11:25 AM,51.8,50.0,94,29.59,6.2,SSW,10.4,-,N/A,,Mostly Cloudy,200,2012-10-16 09:25:00
11:28 AM,51.8,50.0,94,29.59,6.2,SSW,9.2,-,N/A,,Mostly Cloudy,200,2012-10-16 09:28:00
11:44 AM,51.8,50.0,94,29.59,6.2,SSW,8.1,-,N/A,,Mostly Cloudy,200,2012-10-16 09:44:00
11:55 AM,51.8,50.0,94,29.59,6.2,SSW,8.1,-,N/A,,Mostly Cloudy,200,2012-10-16 09:55:00
12:25 PM,55.4,50.0,82,29.62,6.2,SSW,10.4,-,N/A,,Unknown,210,2012-10-16 10:25:00
12:31 PM,55.4,50.0,82,29.62,6.2,SSW,9.2,-,N/A,,Unknown,200,2012-10-16 10:31:00
12:55 PM,55.4,50.0,82,29.62,6.2,SSW,12.7,-,N/A,,Scattered Clouds,210,2012-10-16 10:55:00
1:06 PM,55.4,50.0,82,29.62,6.2,SSW,12.7,-,N/A,,Scattered Clouds,210,2012-10-16 11:06:00
1:19 PM,55.4,50.0,82,29.62,6.2,SSW,13.8,-,N/A,,Scattered Clouds,210,2012-10-16 11:19:00
1:24 PM,55.4,50.0,82,29.62,6.2,SSW,12.7,-,N/A,,Mostly Cloudy,210,2012-10-16 11:24:00
1:25 PM,55.4,50.0,82,29.62,6.2,SW,12.7,-,N/A,,Scattered Clouds,220,2012-10-16 11:25:00
1:27 PM,55.4,50.0,82,29.62,6.2,SSW,11.5,-,N/A,,Mostly Cloudy,210,2012-10-16 11:27:00
1:31 PM,55.4,50.0,82,29.62,6.2,SSW,12.7,-,N/A,,Mostly Cloudy,210,2012-10-16 11:31:00
1:39 PM,55.4,50.0,82,29.62,6.2,SSW,10.4,-,N/A,,Mostly Cloudy,210,2012-10-16 11:39:00
1:44 PM,55.4,50.0,82,29.62,6.2,SSW,10.4,-,N/A,,Mostly Cloudy,210,2012-10-16 11:44:00
1:48 PM,57.2,50.0,77,29.62,6.2,SSW,10.4,-,N/A,,Mostly Cloudy,210,2012-10-16 11:48:00
1:55 PM,57.2,50.0,77,29.62,6.2,SW,12.7,-,N/A,,Mostly Cloudy,220,2012-10-16 11:55:00
1:56 PM,57.2,50.0,77,29.62,6.2,SW,13.8,-,N/A,,Scattered Clouds,220,2012-10-16 11:56:00
2:05 PM,57.2,50.0,77,29.62,6.2,SW,12.7,24.2,N/A,,Mostly Cloudy,220,2012-10-16 12:05:00
2:25 PM,59.0,50.0,72,29.62,6.2,SW,13.8,-,N/A,,Mostly Cloudy,220,2012-10-16 12:25:00
2:55 PM,59.0,46.4,63,29.62,6.2,SW,16.1,28.8,N/A,,Scattered Clouds,220,2012-10-16 12:55:00
2:57 PM,59.0,48.2,67,29.65,6.2,SW,16.1,28.8,N/A,,Scattered Clouds,230,2012-10-16 12:57:00
3:25 PM,59.0,44.6,59,29.65,6.2,WSW,17.3,-,N/A,,Partly Cloudy,240,2012-10-16 13:25:00
3:30 PM,59.0,44.6,59,29.65,6.2,WSW,17.3,-,N/A,,Scattered Clouds,240,2012-10-16 13:30:00
3:55 PM,59.0,42.8,55,29.65,6.2,WSW,19.6,31.1,N/A,,Partly Cloudy,240,2012-10-16 13:55:00
4:25 PM,59.0,42.8,55,29.65,6.2,SW,17.3,-,N/A,,Unknown,230,2012-10-16 14:25:00
4:55 PM,59.0,42.8,55,29.65,6.2,SW,15.0,26.5,N/A,,Unknown,230,2012-10-16 14:55:00
5:25 PM,59.0,42.8,55,29.65,6.2,SW,15.0,-,N/A,,Unknown,230,2012-10-16 15:25:00
5:55 PM,57.2,42.8,59,29.68,6.2,SW,17.3,-,N/A,,Partly Cloudy,230,2012-10-16 15:55:00
6:25 PM,55.4,42.8,63,29.68,6.2,SW,15.0,26.5,N/A,,Partly Cloudy,230,2012-10-16 16:25:00
6:55 PM,55.4,41.0,58,29.71,6.2,SW,15.0,-,N/A,,Unknown,230,2012-10-16 16:55:00
7:25 PM,53.6,41.0,62,29.71,6.2,SW,10.4,-,N/A,,Partly Cloudy,220,2012-10-16 17:25:00
7:55 PM,53.6,41.0,62,29.71,6.2,SW,8.1,-,N/A,,Partly Cloudy,220,2012-10-16 17:55:00
8:25 PM,53.6,41.0,62,29.74,6.2,SW,11.5,-,N/A,,Unknown,220,2012-10-16 18:25:00
8:55 PM,53.6,42.8,67,29.74,6.2,SW,12.7,-,N/A,,Unknown,220,2012-10-16 18:55:00
9:25 PM,51.8,44.6,76,29.74,6.2,SW,12.7,-,N/A,,Unknown,220,2012-10-16 19:25:00
9:55 PM,51.8,44.6,76,29.74,6.2,SW,11.5,-,N/A,,Unknown,220,2012-10-16 19:55:00
10:25 PM,51.8,46.4,82,29.77,6.2,SW,10.4,-,N/A,,Unknown,220,2012-10-16 20:25:00
10:55 PM,51.8,46.4,82,29.77,6.2,SSW,6.9,-,N/A,,Unknown,210,2012-10-16 20:55:00
11:25 PM,51.8,46.4,82,29.77,6.2,SSW,10.4,-,N/A,,Unknown,210,2012-10-16 21:25:00
11:55 PM,51.8,46.4,82,29.77,6.2,SSW,6.9,-,N/A,,Unknown,200,2012-10-16 21:55:00